SVRATOUCH Weather Reports


time (UTC)temp
C
wind
direction
speed
KPH
gust
KPH
rain 1hr
cm
rain 24hr
cm
rain mn
cm
humidity
%
barometer
mb
20260507012116 10 310 8.0 0.0 0.00 0.00 0.00 93
20260507002026 10 350 11.3 0.0 0.00 0.00 0.00 93
20260506232026 10 350 22.5 0.0 0.00 0.00 0.00 93
20260506222247 12 260 22.5 0.0 0.00 0.00 0.00 81
20260506212048 11 180 14.5 0.0 0.00 0.00 0.00 93
20260506202048 11 50 14.5 0.0 0.00 0.00 0.00 93
20260506192209 12 20 19.3 0.0 0.00 0.00 0.00 87
20260506182106 17 170 14.5 0.0 0.00 0.00 0.00 55
20260506172030 17 170 29.0 46.7 0.00 0.00 0.00 48
20260506162248 17 170 29.0 0.0 0.00 0.00 0.00 52
20260506152105 18 160 29.0 0.0 0.00 0.00 0.00 48
20260506142033 17 180 29.0 0.0 0.00 0.00 0.00 48
20260506132033 17 180 25.7 0.0 0.00 0.00 0.00 48
20260506122033 18 190 19.3 0.0 0.00 0.00 0.00 45
20260506112027 17 200 14.5 0.0 0.00 0.00 0.00 55
20260506102217 17 220 19.3 0.0 0.00 0.00 0.00 51
20260506092000 16 230 19.3 0.0 0.00 0.00 0.00 63
20260506082026 13 270 22.5 0.0 0.00 0.00 0.00 71
20260506072027 12 260 25.7 0.0 0.00 0.00 0.00 71
20260506062051 12 270 29.0 0.0 0.00 0.00 0.00 76
20260506042231 10 240 14.5 0.0 0.00 0.00 0.00 99
20260506032029 10 260 14.5 0.0 0.00 0.00 0.00 99
20260506022027 11 300 8.0 0.0 0.00 0.00 0.00 93